Decatur, IL

5:22 AM CST on November 21, 2017 (GMT -0600)
Decatur

Weather History for KDEC - December, 2011

Change the Weather History Date:

Monday, December 5, 2011

  Actual Average Record
Temperature  
Mean Temperature 35 °F 34 °F  
Max Temperature 37 °F 42 °F 66 °F (2001)
Min Temperature 32 °F 26 °F 8 °F (2005)
Degree Days  
Heating Degree Days 30 31  
Month to date heating degree days 121 151  
Since 1 July heating degree days 1038 1232  
Cooling Degree Days 0 0  
Month to date cooling degree days 0 0  
Year to date cooling degree days 1327 1048  
Moisture  
Dew Point 31 °F    
Average Humidity 89    
Maximum Humidity 96    
Minimum Humidity 82    
Precipitation  
Precipitation T in 0.09 in 0.57 in (2014)
Month to date precipitation 0.22 0.41  
Year to date precipitation 32.71 36.32  
Sea Level Pressure  
Sea Level Pressure 30.25 in    
Wind  
Wind Speed 14 mph (North)    
Max Wind Speed 21 mph    
Max Gust Speed 24 mph    
Visibility 8 miles    
Events      
T = Trace of Precipitation, MM = Missing Value Source: NWS Daily Summary

Daily Weather History Graph

Daily Weather History Graph

Search for Another Location

Airport or City:

Trip Planner

Search our weather history database for the weather conditions in past years. The results will help you decide how hot, cold, wet, or windy it might be!

Date:

Astronomy

Dec. 05, 2011 Rise Set
Actual Time 7:01 AM CST 4:30 PM CST
Civil Twilight 6:31 AM CST 5:00 PM CST
Nautical Twilight 5:57 AM CST 5:34 PM CST
Astronomical Twilight 5:24 AM CST 6:07 PM CST
Moon 1:28 PM CST (12/5) 2:23 AM CST (12/5)
Length of Visible Light 10h 29m
Length of Day
9h 29m
Waxing Gibbous, 80% of the Moon is Illuminated
Dec 5
Waxing Gibbous
Dec 10
Full
Dec 17
Last Quarter
Dec 24
New
Jan 1
First Quarter

Hourly Weather History & Observations

Time (CST) Temp. Windchill Dew Point Humidity Pressure Visibility Wind Dir Wind Speed Gust Speed Precip Events Conditions
12:54 AM 33.8 °F 24.8 °F 30.2 °F 87% 30.25 in 9.0 mi North 12.7 mph - N/A   Overcast
1:10 AM 33.8 °F 25.8 °F 30.2 °F 87% 30.24 in 8.0 mi North 10.4 mph - N/A   Overcast
1:54 AM 33.1 °F 23.9 °F 30.0 °F 89% 30.27 in 7.0 mi North 12.7 mph - N/A   Overcast
2:50 AM 33.8 °F 25.8 °F 30.2 °F 87% 30.25 in 10.0 mi North 10.4 mph - N/A   Overcast
2:54 AM 33.1 °F 24.9 °F 30.0 °F 89% 30.27 in 10.0 mi North 10.4 mph - N/A   Overcast
3:54 AM 33.8 °F 25.8 °F 28.4 °F 81% 30.27 in 10.0 mi NNW 10.4 mph - N/A   Overcast
4:22 AM 33.8 °F 23.9 °F 28.4 °F 81% 30.28 in 9.0 mi North 15.0 mph 23.0 mph N/A   Overcast
4:42 AM 33.8 °F 24.8 °F 30.2 °F 87% 30.26 in 8.0 mi North 12.7 mph - N/A   Overcast
4:54 AM 33.8 °F 24.3 °F 30.2 °F 87% 30.27 in 8.0 mi North 13.8 mph - N/A   Overcast
5:54 AM 33.1 °F 24.9 °F 30.0 °F 89% 30.27 in 9.0 mi North 10.4 mph - N/A   Overcast
6:52 AM 33.8 °F 24.8 °F 28.4 °F 81% 30.24 in 10.0 mi North 12.7 mph 20.7 mph N/A   Overcast
6:54 AM 33.1 °F 26.1 °F 30.0 °F 89% 30.27 in 10.0 mi North 8.1 mph 20.7 mph N/A   Overcast
7:54 AM 33.1 °F 23.0 °F 30.0 °F 89% 30.27 in 9.0 mi North 15.0 mph - N/A   Overcast
8:54 AM 33.1 °F 22.6 °F 30.0 °F 89% 30.26 in 10.0 mi North 16.1 mph - N/A   Overcast
9:54 AM 35.1 °F 25.2 °F 30.9 °F 85% 30.29 in 10.0 mi NNW 16.1 mph - N/A   Overcast
10:54 AM 35.1 °F 26.4 °F 30.9 °F 85% 30.29 in 10.0 mi North 12.7 mph 23.0 mph N/A   Overcast
11:16 AM 35.6 °F 27.5 °F 30.2 °F 81% 30.25 in 10.0 mi North 11.5 mph - N/A   Overcast
11:54 AM 35.1 °F 25.5 °F 30.9 °F 85% 30.26 in 10.0 mi North 15.0 mph - N/A   Overcast
12:54 PM 35.1 °F 24.5 °F 30.9 °F 85% 30.24 in 9.0 mi North 18.4 mph 21.9 mph N/A   Overcast
1:54 PM 35.1 °F 25.2 °F 30.9 °F 85% 30.23 in 8.0 mi North 16.1 mph - N/A   Overcast
2:26 PM 35.6 °F 25.2 °F 32.0 °F 87% 30.21 in 8.0 mi NNW 18.4 mph - N/A   Overcast
2:54 PM 36.0 °F 26.0 °F 32.0 °F 86% 30.24 in 7.0 mi North 17.3 mph - N/A   Overcast
3:54 PM 35.6 °F 25.9 °F 32.0 °F 87% 30.20 in 6.0 mi North 16.1 mph - N/A   Overcast
4:54 PM 35.6 °F 25.9 °F 33.8 °F 93% 30.24 in 6.0 mi NNW 16.1 mph - N/A   Overcast
5:03 PM 35.6 °F 26.2 °F 33.8 °F 93% 30.24 in 6.0 mi NNW 15.0 mph - N/A   Overcast
5:37 PM 35.6 °F 26.6 °F 33.8 °F 93% 30.25 in 6.0 mi North 13.8 mph - N/A   Overcast
5:54 PM 35.1 °F 25.9 °F 33.1 °F 92% 30.25 in 6.0 mi North 13.8 mph - N/A   Overcast
6:54 PM 36.0 °F 26.7 °F 33.1 °F 89% 30.25 in 8.0 mi North 15.0 mph 21.9 mph N/A   Overcast
7:26 PM 35.6 °F 27.1 °F 33.8 °F 93% 30.23 in 9.0 mi North 12.7 mph - N/A   Overcast
7:54 PM 36.0 °F 27.5 °F 33.1 °F 89% 30.26 in 9.0 mi North 12.7 mph - N/A   Overcast
8:54 PM 36.0 °F 28.0 °F 33.1 °F 89% 30.27 in 8.0 mi North 11.5 mph - N/A   Overcast
9:10 PM 35.6 °F 27.1 °F 33.8 °F 93% 30.25 in 7.0 mi North 12.7 mph - N/A   Overcast
9:54 PM 35.6 °F 26.6 °F 33.8 °F 93% 30.26 in 6.0 mi North 13.8 mph - N/A   Overcast
10:54 PM 36.0 °F 28.0 °F 34.0 °F 93% 30.27 in 6.0 mi North 11.5 mph - N/A   Overcast
11:11 PM 35.6 °F 28.0 °F 33.8 °F 93% 30.24 in 6.0 mi North 10.4 mph - N/A   Overcast
11:54 PM 37.0 °F 29.8 °F 34.0 °F 89% 30.25 in 8.0 mi NNE 10.4 mph - N/A   Overcast